• In Hungary
  • List of Countries
  • For 7 days
  • Water Temperature
  • Satellite Maps
  • Weather Map
  • News
  • Weather Widgets
  • user-avatar
    Login

    Hourly Weather Zawalow

    Today, 17 July, Tuesday

    Time Temperature Precipitation Wind Pressure Humidity
    00:00 +17°C° 0 mm 2 mps 736 mmHg 94%
    01:00 +16°C° 0 mm 2 mps 736 mmHg 95%
    02:00 +16°C° 0 mm 1 mps 735 mmHg 95%
    03:00 +16°C° 0 mm 1 mps 735 mmHg 95%
    04:00 +16°C° 0 mm 1 mps 735 mmHg 96%
    05:00 +16°C° 0 mm 1 mps 735 mmHg 96%
    06:00 +17°C° 0 mm 2 mps 735 mmHg 93%
    07:00 +18°C° 0 mm 2 mps 735 mmHg 90%
    08:00 +20°C° 0 mm 2 mps 735 mmHg 87%
    09:00 +21°C° 0.1 mm 2 mps 735 mmHg 82%
    10:00 +22°C° 0.1 mm 3 mps 734 mmHg 78%
    11:00 +24°C° 0.1 mm 3 mps 734 mmHg 73%
    12:00 +25°C° 0.2 mm 3 mps 734 mmHg 72%
    13:00 +25°C° 0.2 mm 3 mps 734 mmHg 70%
    14:00 +25°C° 0.2 mm 3 mps 733 mmHg 69%
    15:00 +25°C° 0.2 mm 3 mps 733 mmHg 71%
    16:00 +25°C° 0.2 mm 2 mps 733 mmHg 74%
    17:00 +25°C° 0.2 mm 2 mps 733 mmHg 76%
    18:00 +24°C° 0.5 mm 2 mps 733 mmHg 81%
    19:00 +23°C° 0.5 mm 2 mps 733 mmHg 85%
    20:00 +21°C° 0.5 mm 2 mps 733 mmHg 89%
    21:00 +20°C° 0.2 mm 2 mps 733 mmHg 91%
    22:00 +20°C° 0.2 mm 2 mps 733 mmHg 92%
    23:00 +19°C° 0.2 mm 2 mps 733 mmHg 93%

    Tomorrow, 18 July, Wednesday

    Time Temperature Precipitation Wind Pressure Humidity
    00:00 +19°C° 0.1 mm 2 mps 733 mmHg 94%
    01:00 +19°C° 0.1 mm 2 mps 733 mmHg 95%
    02:00 +18°C° 0.1 mm 2 mps 733 mmHg 96%
    03:00 +18°C° 0 mm 2 mps 733 mmHg 96%
    04:00 +18°C° 0 mm 2 mps 733 mmHg 96%
    05:00 +18°C° 0 mm 2 mps 733 mmHg 97%
    06:00 +19°C° 0 mm 2 mps 733 mmHg 94%
    07:00 +20°C° 0 mm 2 mps 733 mmHg 92%
    08:00 +21°C° 0 mm 2 mps 733 mmHg 89%
    09:00 +21°C° 0.2 mm 2 mps 733 mmHg 85%
    10:00 +23°C° 0.2 mm 2 mps 734 mmHg 82%
    11:00 +24°C° 0.2 mm 2 mps 734 mmHg 78%
    12:00 +25°C° 0.4 mm 2 mps 734 mmHg 77%
    13:00 +25°C° 0.4 mm 2 mps 734 mmHg 76%
    14:00 +26°C° 0.4 mm 2 mps 734 mmHg 74%
    15:00 +26°C° 0.6 mm 2 mps 734 mmHg 75%
    16:00 +26°C° 0.6 mm 2 mps 734 mmHg 76%
    17:00 +26°C° 0.6 mm 2 mps 734 mmHg 77%
    18:00 +26°C° 0.5 mm 2 mps 734 mmHg 82%
    19:00 +25°C° 0.5 mm 2 mps 734 mmHg 86%
    20:00 +24°C° 0.5 mm 2 mps 734 mmHg 91%
    21:00 +23°C° 0.3 mm 2 mps 734 mmHg 92%
    22:00 +21°C° 0.3 mm 2 mps 734 mmHg 94%
    23:00 +21°C° 0.3 mm 2 mps 734 mmHg 96%

    Day after tomorrow, 19 July, Thursday

    Time Temperature Precipitation Wind Pressure Humidity
    00:00 +20°C° 0.5 mm 2 mps 734 mmHg 96%
    01:00 +20°C° 0.5 mm 2 mps 734 mmHg 97%
    02:00 +20°C° 0.5 mm 2 mps 735 mmHg 97%
    03:00 +20°C° 0.3 mm 2 mps 735 mmHg 98%
    04:00 +19°C° 0.3 mm 2 mps 735 mmHg 98%
    05:00 +19°C° 0.3 mm 2 mps 735 mmHg 98%
    06:00 +20°C° 0 mm 3 mps 735 mmHg 95%
    07:00 +21°C° 0 mm 3 mps 735 mmHg 93%
    08:00 +22°C° 0 mm 3 mps 736 mmHg 90%
    09:00 +23°C° 0.1 mm 4 mps 736 mmHg 84%
    10:00 +25°C° 0.1 mm 4 mps 736 mmHg 78%
    11:00 +27°C° 0.1 mm 4 mps 736 mmHg 73%
    12:00 +27°C° 0.2 mm 5 mps 736 mmHg 71%
    13:00 +27°C° 0.2 mm 5 mps 736 mmHg 68%
    14:00 +28°C° 0.2 mm 5 mps 736 mmHg 66%
    15:00 +28°C° 0.4 mm 5 mps 736 mmHg 68%
    16:00 +27°C° 0.4 mm 5 mps 736 mmHg 70%
    17:00 +27°C° 0.4 mm 5 mps 736 mmHg 71%
    18:00 +26°C° 0.3 mm 5 mps 736 mmHg 76%
    19:00 +23°C° 0.3 mm 4 mps 736 mmHg 80%
    20:00 +22°C° 0.3 mm 4 mps 737 mmHg 85%
    21:00 +21°C° 0 mm 3 mps 737 mmHg 88%
    22:00 +20°C° 0 mm 3 mps 737 mmHg 90%
    23:00 +19°C° 0 mm 3 mps 737 mmHg 93%

    20 July, Friday

    Time Temperature Precipitation Wind Pressure Humidity
    00:00 +19°C° 0 mm 3 mps 737 mmHg 94%
    01:00 +19°C° 0 mm 4 mps 737 mmHg 95%
    02:00 +19°C° 0 mm 4 mps 737 mmHg 96%
    03:00 +18°C° 0 mm 4 mps 737 mmHg 96%
    04:00 +18°C° 0 mm 4 mps 737 mmHg 96%
    05:00 +18°C° 0 mm 4 mps 737 mmHg 97%
    06:00 +19°C° 0 mm 4 mps 738 mmHg 95%
    07:00 +19°C° 0 mm 4 mps 738 mmHg 93%
    08:00 +20°C° 0 mm 5 mps 738 mmHg 91%
    09:00 +20°C° 0.1 mm 4 mps 738 mmHg 89%
    10:00 +21°C° 0.1 mm 4 mps 738 mmHg 87%
    11:00 +22°C° 0.1 mm 4 mps 738 mmHg 85%
    12:00 +23°C° 0.6 mm 5 mps 738 mmHg 82%
    13:00 +25°C° 0.6 mm 5 mps 738 mmHg 78%
    14:00 +26°C° 0.6 mm 5 mps 738 mmHg 75%
    15:00 +26°C° 0.8 mm 5 mps 738 mmHg 75%
    16:00 +26°C° 0.8 mm 6 mps 738 mmHg 76%
    17:00 +26°C° 0.8 mm 6 mps 738 mmHg 76%
    18:00 +25°C° 0.2 mm 5 mps 738 mmHg 78%
    19:00 +23°C° 0.2 mm 4 mps 738 mmHg 81%
    20:00 +22°C° 0.2 mm 4 mps 738 mmHg 83%
    21:00 +21°C° 0 mm 4 mps 738 mmHg 85%
    22:00 +20°C° 0 mm 4 mps 738 mmHg 87%
    23:00 +19°C° 0 mm 4 mps 738 mmHg 89%

    21 July, Saturday

    Time Temperature Precipitation Wind Pressure Humidity
    00:00 +19°C° 0 mm 4 mps 738 mmHg 91%
    01:00 +19°C° 0 mm 4 mps 738 mmHg 92%
    02:00 +19°C° 0 mm 4 mps 738 mmHg 93%
    03:00 +18°C° 0 mm 4 mps 738 mmHg 94%
    04:00 +18°C° 0 mm 4 mps 738 mmHg 95%
    05:00 +18°C° 0 mm 4 mps 738 mmHg 96%
    06:00 +19°C° 0.1 mm 4 mps 738 mmHg 92%
    07:00 +19°C° 0.1 mm 4 mps 738 mmHg 89%
    08:00 +20°C° 0.1 mm 5 mps 739 mmHg 85%
    09:00 +22°C° 0.1 mm 5 mps 739 mmHg 80%
    10:00 +23°C° 0.1 mm 5 mps 739 mmHg 75%
    11:00 +25°C° 0.1 mm 5 mps 739 mmHg 70%
    12:00 +26°C° 0.7 mm 5 mps 739 mmHg 70%
    13:00 +26°C° 0.7 mm 5 mps 738 mmHg 69%
    14:00 +27°C° 0.7 mm 5 mps 738 mmHg 69%
    15:00 +27°C° 0.8 mm 5 mps 738 mmHg 70%
    16:00 +27°C° 0.8 mm 5 mps 738 mmHg 71%
    17:00 +26°C° 0.8 mm 5 mps 738 mmHg 72%
    18:00 +25°C° 0.3 mm 4 mps 738 mmHg 76%
    19:00 +24°C° 0.3 mm 3 mps 738 mmHg 80%
    20:00 +22°C° 0.3 mm 3 mps 738 mmHg 84%
    21:00 +21°C° 0 mm 3 mps 738 mmHg 85%
    22:00 +20°C° 0 mm 3 mps 738 mmHg 87%
    23:00 +19°C° 0 mm 3 mps 738 mmHg 89%

    22 July, Sunday

    Time Temperature Precipitation Wind Pressure Humidity
    00:00 +19°C° 0 mm 3 mps 738 mmHg 90%
    01:00 +18°C° 0 mm 3 mps 738 mmHg 92%
    02:00 +18°C° 0 mm 3 mps 738 mmHg 93%
    03:00 +18°C° 0 mm 3 mps 738 mmHg 95%
    04:00 +17°C° 0 mm 3 mps 738 mmHg 96%
    05:00 +17°C° 0 mm 3 mps 738 mmHg 97%
    06:00 +18°C° 0 mm 3 mps 738 mmHg 93%
    07:00 +19°C° 0 mm 4 mps 739 mmHg 89%
    08:00 +20°C° 0 mm 4 mps 739 mmHg 85%
    09:00 +21°C° 0 mm 5 mps 739 mmHg 80%
    10:00 +23°C° 0 mm 5 mps 739 mmHg 74%
    11:00 +25°C° 0 mm 5 mps 739 mmHg 68%
    12:00 +25°C° 0 mm 5 mps 739 mmHg 65%
    13:00 +26°C° 0 mm 6 mps 738 mmHg 63%
    14:00 +27°C° 0 mm 6 mps 738 mmHg 61%
    15:00 +26°C° 0.1 mm 6 mps 738 mmHg 61%
    16:00 +26°C° 0.1 mm 6 mps 738 mmHg 61%
    17:00 +26°C° 0.1 mm 5 mps 738 mmHg 62%
    18:00 +25°C° 0 mm 5 mps 738 mmHg 66%
    19:00 +22°C° 0 mm 4 mps 738 mmHg 71%
    20:00 +21°C° 0 mm 3 mps 739 mmHg 76%
    21:00 +20°C° 0 mm 3 mps 739 mmHg 77%
    22:00 +19°C° 0 mm 3 mps 739 mmHg 79%
    23:00 +18°C° 0 mm 3 mps 739 mmHg 81%
    Show more